Date,TemperatureHighF,TemperatureAvgF,TemperatureLowF,DewpointHighF,DewpointAvgF,DewpointLowF,HumidityHigh,HumidityAvg,HumidityLow,PressureMaxIn,PressureMinIn,WindSpeedMaxMPH,WindSpeedAvgMPH,GustSpeedMaxMPH,PrecipitationSumIn
2013-1-1,39.0,28.9,14.7,8.0,1.8,-8.9,34,31,29,29.93,29.69,15,4,15,0.00
2013-1-2,27.9,15.8,5.2,1.1,-8.3,-17.1,36,33,31,30.11,29.90,12,3,12,0.00
2013-1-3,30.9,10.7,1.2,2.9,-12.4,-20.7,35,34,30,30.14,29.99,10,2,10,0.00
2013-1-4,37.9,24.4,7.7,8.1,-1.8,-14.9,44,32,29,29.99,29.78,9,2,9,0.00
2013-1-5,47.5,30.7,18.3,13.7,3.0,-6.0,35,30,27,30.25,29.81,13,2,13,0.00
2013-1-6,47.3,29.4,18.7,14.6,3.4,-5.7,42,33,27,30.22,29.93,8,1,8,0.00
2013-1-7,45.3,27.5,15.3,14.1,3.7,-8.1,52,36,27,30.40,29.96,12,1,12,0.00
2013-1-8,48.0,27.6,14.9,15.6,4.2,-6.8,51,37,27,30.37,30.25,8,1,8,0.04
2013-1-9,43.5,32.2,19.8,12.5,7.7,2.3,50,36,28,30.40,29.99,12,1,12,0.04
2013-1-10,51.1,39.4,27.3,16.4,9.3,0.6,33,29,26,30.55,29.99,20,5,20,0.00
2013-1-11,39.6,31.8,23.2,21.2,8.7,-0.5,52,38,28,30.52,30.22,4,0,4,0.16
2013-1-12,43.5,40.2,37.0,36.1,27.0,20.6,78,59,49,30.22,30.14,5,0,4,0.04
2013-1-13,51.4,46.5,41.0,47.8,39.1,29.6,88,76,51,30.17,29.99,6,0,6,0.00
2013-1-14,66.7,50.3,38.3,49.5,27.9,8.8,90,47,25,30.25,29.84,12,2,12,0.00
2013-1-15,43.7,34.9,27.1,12.7,6.1,0.4,33,29,28,30.31,30.22,6,1,6,0.00
2013-1-16,33.6,31.6,28.6,18.3,11.5,1.0,53,44,30,30.25,29.81,2,0,2,0.00
2013-1-17,44.8,31.9,26.2,24.2,9.9,-0.3,71,41,28,30.11,29.81,13,2,13,0.08
2013-1-18,27.5,18.1,11.3,0.8,-6.3,-11.7,36,33,31,30.43,30.05,13,3,13,0.00
2013-1-19,51.6,33.3,18.7,17.5,5.0,-5.7,35,30,26,30.37,29.87,13,2,13,0.08
2013-1-20,54.7,38.2,26.4,22.2,8.7,-0.2,35,29,26,29.90,29.51,20,5,20,0.04
2013-1-21,27.9,23.3,15.8,3.1,-1.7,-8.1,44,33,31,30.08,29.78,17,3,17,0.00
2013-1-22,26.6,18.3,9.5,2.8,-3.8,-13.3,51,37,32,30.05,29.75,12,3,12,0.00
2013-1-23,17.8,7.6,0.5,-7.3,-15.0,-21.5,36,34,33,30.14,30.05,14,3,14,0.00
2013-1-24,18.5,7.2,-4.0,-6.5,-15.4,-25.4,34,34,33,30.19,30.05,14,5,14,0.00
2013-1-25,23.7,13.8,5.2,-1.9,-9.9,-17.3,34,33,32,30.28,30.08,15,4,15,0.00
2013-1-26,26.4,15.2,8.6,-0.9,-8.6,-14.1,36,33,31,30.22,29.99,13,4,13,0.00
2013-1-27,31.3,18.3,12.0,3.2,-6.2,-11.0,35,33,30,30.46,30.19,15,5,15,0.00
2013-1-28,31.1,22.6,15.3,5.3,-0.9,-8.1,44,35,30,30.43,30.02,6,1,6,0.00
2013-1-29,36.3,29.7,23.7,16.1,6.9,0.4,50,38,29,30.19,30.02,4,0,4,0.00
2013-1-30,59.2,44.2,32.7,58.0,28.6,16.1,97,55,38,30.17,29.46,9,1,9,0.28
2013-1-31,61.3,46.5,28.8,58.3,21.9,1.2,92,39,27,29.55,28.92,22,8,22,0.31
2013-2-1,35.6,26.8,20.7,7.0,0.1,-4.8,35,31,29,30.05,29.55,16,6,16,0.00
2013-2-2,31.6,22.7,14.2,5.8,-2.8,-9.1,36,32,30,30.22,30.05,9,2,9,0.00
2013-2-3,28.6,23.8,17.1,4.0,-0.4,-3.0,45,34,30,30.05,29.72,6,1,6,0.00
2013-2-4,32.7,22.5,15.1,4.0,-2.2,-7.8,44,33,30,29.90,29.69,21,4,21,0.00
2013-2-5,29.5,22.4,14.4,1.6,-3.0,-9.1,35,32,30,30.02,29.90,6,1,6,0.00
2013-2-6,38.8,27.7,20.5,9.2,2.7,-3.2,45,34,29,30.28,29.90,12,2,12,0.00
2013-2-7,30.6,20.4,11.7,2.7,-4.6,-11.4,35,32,30,30.52,30.28,12,2,12,0.00
2013-2-8,22.6,19.7,16.5,1.3,-2.6,-5.9,46,37,32,30.49,29.66,10,3,10,0.00
2013-2-9,24.1,18.1,13.5,3.9,-2.9,-9.8,48,39,32,30.17,29.60,16,7,16,0.00
2013-2-10,38.5,21.0,9.0,8.8,-4.2,-13.8,36,32,29,30.37,30.17,10,3,10,0.00
2013-2-11,35.1,25.5,9.3,22.2,5.6,-13.4,59,42,31,30.34,29.60,4,0,4,0.16
2013-2-12,47.1,37.6,30.7,32.3,12.3,6.4,84,37,27,29.84,29.57,16,4,16,0.04
2013-2-13,47.7,33.3,23.7,15.3,5.2,-1.1,42,30,27,29.84,29.69,9,1,9,0.00
2013-2-14,47.1,33.3,24.8,14.3,5.1,-1.5,39,30,27,29.96,29.69,10,1,10,0.00
2013-2-15,57.6,34.5,20.7,23.5,9.3,2.0,52,36,25,29.96,29.87,9,1,9,0.00
2013-2-16,40.5,34.1,26.2,17.4,8.9,1.0,51,35,28,29.93,29.72,10,2,10,0.04
2013-2-17,28.2,21.0,15.4,2.0,-4.0,-8.1,36,32,31,29.72,29.37,24,7,24,0.00
2013-2-18,33.1,20.9,12.4,4.5,-4.2,-10.7,36,32,30,30.11,29.63,18,7,18,0.00
2013-2-19,47.1,34.1,19.8,31.6,9.3,-5.4,68,36,27,30.14,29.55,8,2,8,0.24
2013-2-20,40.1,32.4,25.3,36.6,8.7,-1.1,89,39,30,29.75,29.51,12,1,12,0.28
2013-2-21,32.7,25.4,22.3,3.9,-0.8,-3.2,35,31,30,30.17,29.72,16,4,16,0.00
2013-2-22,49.5,30.9,20.1,15.9,3.2,-5.1,35,30,26,30.37,30.17,10,2,10,0.00
2013-2-23,38.3,33.3,28.2,18.0,7.5,1.0,52,34,29,30.31,29.93,8,1,8,0.00
2013-2-24,36.7,34.6,32.5,24.7,19.8,17.3,63,54,49,29.93,29.69,6,1,6,0.24
2013-2-25,41.4,34.6,30.2,20.8,15.8,7.8,59,47,28,30.22,29.87,4,0,4,0.28
2013-2-26,45.5,35.0,29.5,22.0,13.0,4.0,57,41,27,30.31,30.17,6,1,6,0.08
2013-2-27,41.9,38.3,32.7,37.5,26.7,7.6,94,66,32,30.17,29.55,13,5,13,1.02
2013-2-28,49.8,39.7,36.1,36.7,21.2,9.5,92,53,26,29.60,29.51,8,1,8,0.04
2013-3-1,40.5,36.3,31.1,20.0,10.8,6.1,52,35,28,29.66,29.51,9,2,9,0.00
2013-3-2,48.7,36.5,28.9,15.4,7.5,2.9,33,29,27,29.66,29.60,9,3,9,0.00
2013-3-3,42.6,34.5,29.7,13.3,6.1,2.1,33,30,28,29.63,29.55,9,3,9,0.00
2013-3-4,39.2,33.0,28.8,9.8,4.8,1.0,33,30,28,29.72,29.55,16,6,16,0.00
2013-3-5,51.6,35.7,28.8,18.2,8.8,1.2,51,33,26,30.05,29.72,12,3,12,0.00
2013-3-6,38.7,36.0,33.6,29.2,16.3,6.4,71,45,29,30.14,30.05,13,4,13,0.16
2013-3-7,34.9,32.2,29.8,18.7,13.1,5.9,54,45,33,30.11,29.99,9,1,9,0.04
2013-3-8,39.4,34.2,31.5,18.5,12.5,5.7,57,42,28,30.14,29.96,6,0,6,0.00
2013-3-9,61.0,35.6,22.6,26.3,8.3,-2.5,53,32,25,30.34,30.14,8,2,8,0.24
2013-3-10,56.8,34.5,21.2,22.7,10.7,4.2,57,38,25,30.40,30.28,8,2,8,0.08
2013-3-11,53.8,41.6,30.4,23.1,16.0,9.4,53,37,26,30.31,30.14,8,2,8,0.00
2013-3-12,53.6,48.6,40.1,50.7,36.4,23.3,90,66,33,30.14,29.75,8,2,8,0.20
2013-3-13,53.6,53.6,53.6,50.7,50.7,50.7,90,90,90,29.75,29.75,2,2,3,0.00
2013-3-14,53.6,53.6,53.6,50.7,50.7,50.7,90,90,90,29.75,29.75,2,2,3,0.00
2013-3-15,53.6,51.2,31.5,50.7,45.5,4.2,90,83,30,29.75,29.60,15,2,15,0.00
2013-3-16,47.3,31.6,24.1,14.2,3.7,-1.6,33,30,27,29.87,29.60,15,3,15,0.00
2013-3-17,43.2,27.7,18.0,12.2,0.9,-6.4,35,31,28,30.31,29.84,18,4,18,0.00
2013-3-18,79.7,27.5,11.3,14.2,0.6,-11.7,36,31,27,30.43,30.22,8,2,8,0.00
2013-3-19,35.6,32.7,26.4,22.7,16.6,2.3,60,51,33,30.25,29.63,9,2,9,0.00
2013-3-20,43.2,29.6,24.6,11.9,5.4,-1.5,51,36,28,29.78,29.66,12,1,12,0.04
2013-3-21,45.0,29.9,17.8,12.6,4.7,-3.5,49,35,27,29.78,29.57,8,1,8,0.04
2013-3-22,44.2,33.0,25.2,13.8,5.4,-1.3,46,31,28,29.69,29.57,9,4,9,0.04
2013-3-23,48.7,34.6,25.0,15.2,5.9,-1.5,33,29,26,29.75,29.60,21,6,21,0.00
2013-3-24,58.6,38.4,29.8,24.1,8.6,2.1,33,29,25,29.78,29.72,15,4,15,0.00
2013-3-25,54.5,36.2,26.4,20.6,8.3,1.0,42,31,25,29.78,29.55,9,2,9,0.00
2013-3-26,59.0,41.0,32.5,24.3,10.5,4.5,31,28,25,29.75,29.55,10,3,10,0.00
2013-3-27,62.8,41.5,25.3,26.0,11.0,-1.1,34,29,26,29.87,29.72,16,3,16,0.00
2013-3-28,52.2,42.4,35.6,20.1,14.7,9.6,51,33,26,29.99,29.87,8,1,8,0.00
2013-3-29,65.1,44.0,30.9,29.8,13.9,5.6,45,30,25,30.02,29.96,12,2,12,0.00
2013-3-30,65.7,45.0,30.7,28.4,14.0,2.6,35,28,25,30.08,29.99,13,3,13,0.00
2013-3-31,66.9,44.0,23.9,29.8,13.2,-1.7,42,29,25,30.11,29.75,12,3,12,0.04
2013-4-1,66.6,46.7,32.7,40.8,22.0,4.6,83,40,25,29.75,29.49,17,5,17,0.28
2013-4-2,43.3,33.4,24.4,10.8,5.1,-1.5,33,30,28,29.90,29.75,17,6,17,0.00
2013-4-3,51.8,36.6,28.0,16.9,7.2,1.0,33,29,26,30.11,29.87,23,7,23,0.00
2013-4-4,63.5,42.2,27.3,27.2,11.7,0.6,33,29,26,30.25,29.99,13,4,13,0.00
2013-4-5,68.0,46.6,36.1,31.8,14.9,6.9,32,28,25,29.99,29.60,17,4,17,0.00
2013-4-6,50.2,36.0,25.9,16.6,6.9,-0.7,32,29,26,30.34,29.87,17,5,17,0.00
2013-4-7,63.1,41.2,22.5,27.7,10.9,-3.0,34,29,26,30.40,30.05,13,3,13,0.00
2013-4-8,70.7,51.5,38.5,32.2,21.8,13.5,52,32,25,31.02,30.28,10,2,10,0.00
2013-4-9,74.7,54.9,44.1,34.1,23.2,14.9,49,30,24,31.26,30.87,15,3,15,0.00
2013-4-10,63.3,51.5,45.3,33.1,25.7,15.8,52,38,26,31.26,31.26,6,1,6,0.51
2013-4-11,54.7,47.1,39.7,41.3,24.5,9.2,76,44,26,31.26,31.26,8,1,8,0.08
2013-4-12,40.6,37.5,34.3,35.8,18.6,6.7,84,49,28,31.26,31.26,10,4,10,0.35
2013-4-13,59.0,43.3,36.3,36.0,22.2,11.4,86,48,26,31.26,31.26,8,1,8,0.08
2013-4-14,58.3,45.7,36.3,24.3,16.9,6.7,51,32,26,31.26,31.26,15,3,15,0.00
2013-4-15,66.6,45.3,30.0,29.2,17.2,6.4,52,33,25,31.26,31.26,13,2,13,0.00
2013-4-16,72.3,52.5,35.1,32.9,23.2,14.7,51,33,24,31.26,25.56,13,4,13,0.00
2013-4-17,72.1,57.6,41.5,33.3,23.6,10.6,29,27,24,31.26,25.79,17,4,17,0.00
2013-4-18,71.8,51.2,33.6,33.0,19.6,6.4,44,29,24,31.26,25.79,12,3,12,0.00
2013-4-19,82.2,64.3,51.8,38.6,31.7,19.7,51,30,22,31.23,26.27,17,5,17,0.00
2013-4-20,67.8,53.5,42.3,58.4,26.2,11.4,78,36,26,30.17,26.03,17,6,17,0.35
2013-4-21,63.1,42.7,30.4,27.0,12.1,2.6,33,28,26,26.95,26.95,15,4,15,0.00
2013-4-22,63.9,42.3,30.0,27.8,14.1,5.3,53,32,26,26.95,26.95,10,3,10,0.00
2013-4-23,43.7,39.5,32.9,38.6,21.2,7.0,82,49,31,26.95,26.95,9,2,9,0.00
2013-4-24,81.1,57.7,43.7,40.9,30.2,17.7,85,40,22,26.95,25.53,10,3,10,0.00
2013-4-25,72.7,55.3,40.3,35.7,22.8,9.4,49,28,24,26.95,26.95,15,4,15,0.00
2013-4-26,73.2,50.0,34.7,34.2,17.8,6.4,36,28,24,26.95,26.95,9,2,9,0.00
2013-4-27,40.5,38.4,36.5,16.8,15.5,12.6,44,39,33,26.95,26.95,0,0,0,0.00
2013-4-29,66.7,58.1,52.2,29.8,24.1,20.0,28,27,25,26.95,25.53,9,2,9,0.00
2013-4-30,82.6,58.4,42.1,39.4,23.5,11.1,31,26,21,26.95,26.95,8,2,8,0.00
2013-5-1,83.8,56.2,34.9,39.6,22.4,7.0,41,27,21,26.95,26.95,10,2,10,0.00
2013-5-2,88.2,55.2,38.8,42.9,22.0,10.3,41,28,21,26.95,25.53,9,1,9,0.00
2013-5-3,72.7,52.0,39.7,33.3,22.4,14.5,48,32,24,26.95,26.95,9,3,9,0.00
2013-5-4,74.8,51.4,37.0,34.2,22.6,11.1,60,34,23,26.95,26.95,8,2,8,0.00
2013-5-5,77.0,51.5,33.1,36.0,23.7,15.4,53,36,23,26.95,26.95,9,2,9,0.00
2013-5-6,58.5,52.0,47.1,26.8,23.7,20.3,45,34,27,29.91,25.53,4,1,4,0.00
2013-5-7,89.6,63.1,40.6,43.1,31.1,22.2,66,32,20,26.95,26.95,12,2,12,0.00
2013-5-8,84.2,64.6,51.8,42.9,36.3,29.5,52,37,21,26.95,26.95,14,3,14,0.00
2013-5-9,70.5,60.4,57.6,50.9,41.8,31.5,74,51,27,26.95,26.95,4,0,4,0.55
2013-5-10,73.0,63.7,59.4,35.1,30.8,27.2,39,29,24,29.91,25.53,6,1,6,0.55
2013-5-11,70.3,63.5,57.9,55.3,38.9,30.8,75,42,24,26.95,26.95,12,2,12,0.12
2013-5-12,75.6,61.9,47.1,59.6,39.9,14.6,85,50,23,26.95,25.53,13,2,13,0.04
2013-5-13,65.1,49.7,39.2,28.3,17.3,8.8,31,27,26,26.95,26.95,15,4,15,0.00
2013-5-14,63.9,49.3,35.6,28.0,17.5,7.7,34,28,26,26.95,26.95,13,3,13,0.00
2013-5-15,78.3,52.5,32.7,37.3,22.8,7.0,51,32,23,26.95,26.95,12,2,12,0.04
2013-5-16,87.3,65.5,44.1,45.2,33.0,24.6,73,32,21,26.95,26.95,22,4,22,0.00
2013-5-17,75.2,59.1,46.4,35.0,24.8,15.8,29,27,24,26.95,26.95,12,3,12,0.00
2013-5-18,81.7,58.5,41.0,39.1,27.3,15.8,49,32,22,26.95,26.95,9,2,9,0.00
2013-5-19,78.6,57.7,50.4,38.1,30.7,22.7,51,37,23,26.95,26.95,8,1,8,0.20
2013-5-20,85.5,67.6,56.5,53.4,40.2,31.8,76,41,21,26.95,26.95,8,1,8,0.08
2013-5-21,76.1,59.7,51.1,45.6,37.2,26.8,57,44,23,26.95,26.95,9,2,9,0.00
2013-5-22,62.2,56.1,51.3,52.9,40.9,32.4,85,59,36,26.95,25.53,10,1,10,1.30
2013-5-23,81.1,63.3,54.1,52.8,44.8,36.9,73,53,25,26.95,26.95,10,1,10,0.31
2013-5-24,72.3,64.2,51.1,66.5,47.6,22.9,87,59,27,26.95,26.95,10,2,10,1.06
2013-5-25,53.6,49.6,40.1,48.7,35.8,17.9,84,60,38,26.95,26.95,15,3,15,0.35
2013-5-26,61.2,47.8,39.4,26.4,22.0,14.1,56,37,26,26.95,26.95,15,5,15,0.08
2013-5-27,77.4,55.9,37.6,36.5,25.2,17.1,52,32,23,26.95,26.95,10,2,10,0.00
2013-5-28,80.4,58.9,41.0,37.9,28.3,21.3,50,33,22,26.95,26.95,8,1,8,0.00
2013-5-29,66.7,61.2,52.0,53.5,42.0,27.8,70,49,38,26.95,26.95,4,0,4,0.43
2013-5-30,92.5,74.1,61.0,68.7,46.8,35.1,89,45,19,26.95,26.95,10,1,10,0.00
2013-5-31,99.3,79.2,63.1,51.8,43.9,35.6,54,32,19,26.95,26.95,8,1,8,0.00
2013-6-1,104.4,80.6,66.2,53.7,43.9,37.2,48,29,19,26.95,26.95,9,2,9,0.00
2013-6-2,99.9,79.0,68.7,51.5,43.6,36.7,51,30,19,26.95,26.95,10,2,10,0.08
2013-6-3,84.6,69.9,59.2,59.0,44.8,25.2,72,44,21,26.95,26.95,8,1,8,0.24
2013-6-4,73.2,61.2,51.3,34.1,26.2,19.7,29,26,24,26.95,26.95,10,3,10,0.00
2013-6-5,85.5,62.1,47.7,40.6,28.9,19.7,47,29,21,26.95,25.53,8,1,8,0.00
2013-6-6,78.3,63.7,52.7,37.3,30.0,24.9,45,29,23,26.95,26.95,8,1,8,0.00
2013-6-7,58.3,56.3,55.0,52.7,41.1,29.8,86,58,34,26.95,26.95,8,2,8,1.38
2013-6-8,77.4,64.6,56.7,59.9,43.3,30.1,91,54,23,26.95,25.53,9,2,9,0.83
2013-6-9,83.5,67.5,55.8,45.2,36.0,27.8,54,33,21,26.95,26.95,8,2,8,0.00
2013-6-10,71.6,62.2,54.7,41.6,35.6,28.8,52,39,24,26.95,26.95,6,1,6,0.43
2013-6-11,61.2,59.2,58.1,56.7,45.5,33.3,89,63,36,26.95,26.95,8,1,8,0.79
2013-6-12,70.0,62.7,57.9,58.2,38.3,25.8,86,46,24,26.95,26.95,14,2,14,0.00
2013-6-13,68.5,59.0,52.7,42.6,35.8,27.9,60,43,25,26.95,26.95,6,0,4,0.24
2013-6-14,74.5,62.5,56.1,57.1,40.8,28.5,87,51,23,26.95,26.95,6,0,6,0.47
2013-6-15,86.9,66.9,56.1,41.2,30.8,23.3,38,26,21,26.95,26.95,9,2,9,0.00
2013-6-16,79.9,65.3,52.3,38.3,33.2,27.8,50,32,22,26.95,26.95,8,1,8,0.00
2013-6-17,94.3,68.9,57.6,45.9,39.7,29.6,54,37,19,26.95,26.95,9,1,9,0.08
2013-6-18,72.3,63.1,59.5,57.7,45.8,32.1,81,56,24,26.95,26.95,7,0,7,0.35
2013-6-19,83.5,64.7,53.6,54.4,38.0,23.2,82,43,21,26.95,26.95,6,1,6,0.00
2013-6-20,89.6,65.4,49.3,42.9,33.7,26.9,52,33,20,26.95,26.95,6,1,6,0.00
2013-6-21,92.7,70.5,56.8,43.8,36.6,30.2,50,31,19,26.95,26.95,6,1,6,0.00
2013-6-22,89.1,72.6,60.1,46.2,38.7,31.8,52,31,20,26.95,26.95,7,1,7,0.00
2013-6-23,94.6,77.0,64.0,48.6,39.9,32.7,44,27,20,26.95,26.95,8,2,8,0.00
2013-6-24,100.2,80.3,70.5,54.7,46.0,34.8,56,32,19,26.95,26.95,9,2,9,0.04
2013-6-25,97.5,78.8,69.1,59.9,47.7,37.4,70,37,19,26.95,26.95,8,2,8,0.16
2013-6-26,81.5,73.1,65.5,70.4,56.3,39.5,88,60,24,26.95,26.95,6,0,6,0.71
2013-6-27,69.8,66.1,63.5,63.9,55.3,44.8,89,70,43,26.95,26.95,4,0,4,0.20
2013-6-28,81.7,69.7,61.0,74.7,55.7,44.1,91,66,30,26.95,26.95,10,1,10,0.24
2013-6-29,88.0,75.8,70.5,54.1,45.2,36.9,53,35,21,26.95,26.95,9,2,9,0.00
2013-6-30,92.5,77.0,67.5,53.4,44.7,39.4,54,34,19,26.95,26.95,7,1,7,0.00
2013-7-1,83.3,74.3,71.4,71.4,55.5,43.4,87,55,27,26.95,26.95,6,0,6,0.87
2013-7-2,81.3,71.2,62.4,76.7,59.1,41.5,90,68,31,26.95,26.95,6,1,6,0.08
2013-7-3,88.5,74.6,62.6,63.3,51.3,42.1,88,51,23,26.95,26.95,7,1,7,0.00
2013-7-4,99.0,82.3,72.3,61.1,49.2,42.1,65,34,20,26.95,26.95,8,2,8,0.00
2013-7-5,99.7,83.8,74.5,54.4,47.9,41.8,49,30,20,26.95,26.95,9,1,9,0.00
2013-7-6,94.6,81.5,71.2,54.3,44.8,35.6,48,29,20,26.95,26.95,8,2,8,0.00
2013-7-7,96.3,78.2,66.6,49.8,43.8,37.7,48,31,20,26.95,26.95,6,1,6,0.00
2013-7-8,82.4,74.6,67.1,60.3,49.2,39.4,77,43,27,26.95,26.95,6,1,6,0.43
2013-7-9,71.6,68.5,66.4,60.2,50.4,43.6,78,54,37,26.95,26.95,4,0,4,0.72
2013-7-10,82.9,72.3,66.0,71.6,53.6,44.1,85,53,30,26.95,26.95,6,0,6,0.16
2013-7-11,84.2,76.2,72.0,80.4,62.0,41.7,91,66,29,26.95,26.95,8,0,8,0.12
2013-7-12,86.2,71.7,64.4,61.7,39.6,30.4,71,33,21,26.95,26.95,12,2,12,0.00
2013-7-13,88.9,71.1,63.5,48.6,40.8,36.0,49,34,20,26.95,26.95,5,0,5,0.00
2013-7-14,98.8,78.8,68.2,55.7,48.1,41.8,56,37,19,26.95,26.95,6,1,6,0.00
2013-7-15,99.5,80.2,70.2,56.1,48.0,41.7,54,35,20,26.95,26.95,6,0,6,0.00
2013-7-16,100.8,80.3,68.5,51.5,43.6,38.0,43,28,19,26.95,26.95,6,1,6,0.00
2013-7-17,101.5,82.0,69.3,52.9,46.0,40.8,49,30,19,26.95,26.95,6,1,6,0.00
2013-7-18,102.6,81.5,72.5,55.9,46.6,37.8,54,31,18,26.95,26.95,7,1,7,0.00
2013-7-19,103.5,84.8,72.9,69.5,53.0,43.4,82,39,19,26.95,26.95,12,2,12,0.00
2013-7-20,99.0,82.0,72.3,50.9,41.5,34.1,31,24,20,26.95,26.95,9,2,9,0.00
2013-7-21,88.3,73.1,65.7,46.8,39.1,34.2,46,30,20,26.95,26.95,6,1,6,0.00
2013-7-22,86.5,72.8,67.5,52.0,44.4,36.9,52,37,23,26.95,26.95,6,1,6,0.00
2013-7-23,79.7,72.0,68.0,70.7,55.9,43.7,87,59,40,26.95,26.95,6,0,6,1.10
2013-7-24,91.6,75.2,63.1,70.9,48.2,27.7,87,45,20,26.95,26.95,8,2,8,0.00
2013-7-25,64.4,61.0,57.4,58.9,32.7,23.9,87,37,26,26.95,26.95,6,1,6,0.51
2013-7-26,70.7,66.7,62.8,63.4,52.9,39.2,94,65,33,26.95,26.95,8,1,6,0.20
2013-7-27,91.8,71.7,61.3,60.2,43.8,34.6,82,41,19,26.95,26.95,6,1,6,0.00
2013-7-28,84.4,70.7,64.4,50.7,45.9,40.3,53,42,26,30.05,26.95,6,1,6,0.00
2013-7-29,87.6,73.1,66.7,63.7,50.4,-53.4,80,48,23,30.08,29.99,7,1,7,0.00
2013-7-30,90.1,71.1,61.3,51.9,40.8,33.0,58,36,20,30.14,30.05,8,1,8,0.00
2013-7-31,90.3,70.1,60.1,45.8,38.9,32.4,52,34,20,30.17,30.08,5,1,5,0.00
2013-8-1,93.9,69.2,59.7,49.4,42.1,35.3,54,40,19,30.08,29.90,8,1,8,0.04
2013-8-2,89.1,71.4,65.3,61.8,44.3,31.4,82,42,20,29.90,29.81,7,1,7,0.43
2013-8-3,83.1,70.1,61.5,45.6,38.0,29.3,50,32,21,29.90,29.78,8,1,8,0.00
2013-8-4,86.0,65.9,57.4,44.5,37.7,31.3,51,37,21,29.93,29.81,6,1,6,0.00
2013-8-5,80.2,63.7,53.2,37.7,30.8,22.2,47,30,22,30.08,29.90,13,2,13,0.00
2013-8-6,89.1,63.7,49.3,42.9,32.3,26.0,50,32,20,30.19,30.08,6,0,6,0.00
2013-8-7,87.6,67.2,53.8,42.9,35.3,28.4,50,33,21,30.22,30.14,8,1,8,0.00
2013-8-8,83.5,72.4,62.4,48.6,41.0,28.7,47,33,24,30.17,30.02,10,1,10,0.00
2013-8-9,77.7,73.9,71.2,73.9,61.6,47.9,92,68,42,30.05,29.75,6,1,6,1.22
2013-8-10,89.6,73.1,60.4,70.8,48.4,29.3,91,49,20,30.05,29.81,12,2,12,0.00
2013-8-11,86.2,66.4,53.6,41.1,35.5,30.4,49,34,21,30.11,30.02,6,1,6,0.00
2013-8-12,87.8,68.6,57.6,43.8,38.0,31.4,51,35,21,30.05,29.93,6,1,6,0.00
2013-8-13,74.1,67.6,63.1,48.4,44.0,40.3,49,43,31,29.96,29.69,4,0,4,0.00
2013-8-14,77.9,66.2,57.2,48.9,34.6,25.8,53,32,23,29.99,29.69,15,3,15,0.00
2013-8-15,81.7,64.0,52.0,38.1,32.7,27.9,48,32,22,30.14,29.99,8,1,8,0.00
2013-8-16,82.6,64.9,52.2,39.7,35.0,29.9,49,35,22,30.22,30.14,7,1,7,0.00
2013-8-17,89.1,66.9,55.8,42.9,37.2,31.4,49,36,20,30.31,30.22,6,1,6,0.00
2013-8-18,84.6,68.0,57.2,44.4,38.0,33.8,48,35,21,30.31,30.11,6,0,6,0.00
2013-8-19,87.3,70.3,60.3,43.4,38.4,33.3,49,33,21,30.11,29.96,6,1,6,0.00
2013-8-20,91.8,72.8,61.2,45.0,40.4,36.7,46,33,19,30.11,30.02,5,1,5,0.00
2013-8-21,92.7,73.8,61.3,46.9,42.0,14.5,48,34,19,30.17,30.05,6,1,6,0.00
2013-8-22,93.2,75.6,63.1,46.5,42.7,39.4,48,33,19,30.05,29.84,8,1,8,0.00
2013-8-23,86.4,71.9,60.6,47.7,37.1,25.8,44,29,21,30.17,29.84,8,2,8,0.00
2013-8-24,84.4,64.0,50.9,40.2,30.9,23.8,44,30,21,30.34,30.17,6,1,6,0.00
2013-8-25,88.0,66.6,51.4,42.3,33.8,28.7,47,31,21,30.40,30.19,8,1,8,0.00
2013-8-26,83.3,71.1,63.3,42.0,36.2,28.2,44,28,21,30.19,29.90,8,1,8,0.00
2013-8-27,86.9,74.1,65.8,47.4,42.0,36.1,44,33,21,29.93,29.87,6,1,6,0.00
2013-8-28,94.6,72.5,62.1,46.6,41.3,35.6,47,34,19,30.02,29.90,6,1,6,0.00
2013-8-29,67.1,64.9,60.1,46.2,40.5,35.6,47,41,35,30.11,29.99,8,1,8,0.00
2013-8-30,86.7,69.9,57.7,42.4,39.2,36.7,48,34,21,30.05,29.84,6,1,6,0.00
2013-8-31,80.8,73.2,67.1,63.8,49.6,40.3,75,44,31,29.87,29.81,8,0,8,0.12
2013-9-1,88.3,76.2,70.7,58.7,49.0,42.4,60,40,23,29.90,29.81,6,1,6,0.04
2013-9-2,79.2,74.2,72.5,66.4,55.5,48.5,77,53,41,29.90,29.75,6,0,6,0.31
2013-9-3,82.8,73.0,62.2,69.2,52.1,38.6,86,52,26,29.84,29.72,6,0,6,0.00
2013-9-4,83.3,68.0,57.9,41.3,36.7,31.4,50,33,21,29.93,29.81,9,1,9,0.00
2013-9-5,76.8,62.4,50.4,42.0,32.5,20.6,46,33,23,30.19,29.87,8,1,8,0.00
2013-9-6,78.4,56.2,42.8,37.3,26.2,19.4,48,32,23,30.28,30.11,6,1,6,0.00
2013-9-7,84.2,63.0,48.0,39.1,31.9,25.5,48,32,21,30.11,29.87,6,1,6,0.00
2013-9-8,78.1,63.3,48.4,37.0,30.0,18.3,35,29,23,30.14,29.78,10,2,10,0.00
2013-9-9,75.9,56.6,42.4,35.1,25.9,18.9,48,32,23,30.25,30.14,8,1,8,0.00
2013-9-10,73.9,65.0,53.1,49.7,40.6,24.4,50,41,30,30.17,30.05,8,1,8,0.08
2013-9-11,102.4,80.3,69.3,58.7,49.1,41.5,60,36,20,30.08,29.96,8,1,8,0.00
2013-9-12,87.3,74.0,68.2,61.0,48.5,41.5,76,42,26,29.99,29.69,10,1,10,1.26
2013-9-13,80.1,67.6,58.1,64.6,49.5,31.9,82,55,30,29.78,29.60,7,1,7,0.31
2013-9-14,71.4,59.6,51.3,34.1,31.1,26.4,48,35,25,30.08,29.78,9,2,9,0.00
2013-9-15,77.7,58.0,47.7,37.1,31.3,26.0,53,38,23,30.19,30.08,6,1,6,0.00
2013-9-16,55.9,55.1,54.3,35.7,34.8,34.1,48,46,44,30.08,30.05,2,0,0,0.00
2013-9-17,72.7,55.8,44.8,33.5,26.0,20.2,49,33,24,30.46,30.34,6,1,6,0.00
2013-9-18,81.7,55.5,40.3,38.2,27.6,21.9,51,36,22,30.34,30.17,6,0,6,0.00
2013-9-19,87.3,59.7,45.0,42.4,32.0,26.9,50,37,21,30.17,30.05,6,0,6,0.00
2013-9-20,82.8,61.8,47.8,40.8,34.6,29.9,50,38,21,30.14,30.02,4,0,4,0.00
2013-9-21,79.9,63.3,50.2,43.9,37.0,32.2,52,39,25,30.05,29.75,8,2,8,0.00
2013-9-22,72.7,64.3,52.3,49.2,36.0,20.0,57,36,24,29.87,29.63,10,2,10,0.75
2013-9-23,64.2,51.7,43.3,27.5,21.2,15.8,39,30,26,30.02,29.87,12,2,12,0.00
2013-9-24,67.5,51.1,39.2,28.8,23.4,19.2,50,35,25,30.02,29.87,12,2,12,0.00
2013-9-25,65.8,53.6,42.4,33.7,27.4,24.0,50,37,25,30.02,29.90,5,0,5,0.00
2013-9-26,72.9,57.5,48.9,34.3,29.4,23.8,47,35,24,30.17,30.02,6,0,6,0.00
2013-9-27,72.0,58.2,50.2,35.1,31.4,27.9,48,37,25,30.28,30.17,6,0,6,0.00
2013-9-28,80.2,57.5,48.0,41.2,31.2,25.8,50,39,22,30.37,30.28,6,1,6,0.00
2013-9-29,74.5,54.1,45.1,35.2,29.5,22.9,51,40,23,30.31,30.17,6,0,6,0.00
2013-9-30,78.3,54.4,44.6,37.1,30.0,26.1,55,41,23,30.17,30.02,4,0,4,0.00
2013-10-1,84.2,59.3,46.2,41.2,32.9,28.3,55,39,21,30.02,29.87,8,1,8,0.00
2013-10-2,88.7,63.5,50.0,42.3,35.6,31.4,51,37,20,29.99,29.84,12,1,12,0.00
2013-10-3,87.4,61.6,50.0,41.5,33.7,27.4,51,37,21,30.11,29.99,6,0,6,0.00
2013-10-4,62.2,57.6,51.1,40.3,36.7,32.1,51,46,37,30.14,30.08,0,0,0,0.04
2013-10-5,66.9,60.8,57.9,44.1,37.4,31.3,57,43,30,30.17,30.08,4,0,4,0.00
2013-10-6,58.6,56.1,52.5,48.4,38.8,33.5,70,53,43,30.28,30.17,6,0,4,0.31
2013-10-7,77.9,66.4,58.3,65.3,49.5,38.7,82,58,30,30.17,29.81,13,2,13,0.24
2013-10-8,72.9,54.9,42.8,40.7,27.8,18.9,49,36,24,30.40,29.93,8,2,8,0.00
2013-10-9,67.3,48.9,39.4,30.2,24.1,20.2,51,39,25,30.52,30.40,6,1,6,0.00
2013-10-10,61.9,50.4,40.1,32.5,27.4,22.8,50,42,26,30.40,30.22,4,0,4,0.00
2013-10-11,71.1,56.1,46.8,34.3,29.4,23.5,51,38,24,30.22,30.14,6,0,6,0.00
2013-10-12,56.8,53.4,47.5,37.2,34.3,28.7,52,48,43,30.43,30.19,6,0,6,0.00
2013-10-13,62.2,50.8,40.3,45.2,28.0,21.9,76,43,26,30.49,30.43,5,0,5,0.00
2013-10-14,66.2,49.4,35.6,31.7,24.1,18.8,51,39,25,30.43,30.28,6,0,6,0.00
2013-10-15,63.5,56.0,51.6,35.1,32.1,29.4,48,41,29,30.31,30.22,4,0,4,0.00
2013-10-16,61.2,56.3,53.1,38.6,34.1,28.0,51,44,29,30.22,29.96,4,0,4,0.00
2013-10-17,76.3,60.5,52.9,42.1,34.3,23.3,57,39,23,29.96,29.75,6,1,6,0.00
2013-10-18,69.6,60.3,48.7,56.5,32.0,17.7,76,36,25,29.93,29.63,12,3,12,0.04
2013-10-19,70.2,53.4,37.6,31.7,23.8,16.0,49,33,24,29.99,29.78,6,1,6,0.00
2013-10-20,65.8,51.9,38.7,31.6,22.6,13.5,49,32,25,30.05,29.72,13,2,13,0.00
2013-10-21,70.7,48.9,34.2,31.5,21.5,15.7,50,35,24,30.14,30.02,8,1,8,0.00
2013-10-22,63.7,51.1,40.6,35.8,25.6,15.8,49,38,26,30.02,29.72,12,1,12,0.00
2013-10-23,52.5,44.1,33.6,26.2,17.6,14.2,50,35,27,29.84,29.60,6,0,6,0.00
2013-10-24,54.9,44.7,36.1,22.3,15.0,9.6,42,30,26,29.90,29.66,15,3,15,0.00
2013-10-25,51.4,40.3,30.9,19.5,12.5,3.4,49,32,26,30.17,29.90,9,2,9,0.00
2013-10-26,56.5,41.7,27.5,22.6,14.6,4.5,49,34,26,30.17,29.90,8,2,8,0.00
2013-10-27,58.8,46.9,35.6,24.3,16.6,7.4,42,30,26,30.08,29.84,13,2,13,0.00
2013-10-28,57.0,41.9,30.7,23.3,14.7,5.1,50,34,26,30.37,30.08,12,2,12,0.00
2013-10-29,56.5,34.2,24.3,20.7,6.8,0.1,43,32,25,30.49,30.37,6,1,6,0.00
2013-10-30,49.5,36.4,27.7,20.4,12.4,0.9,49,37,29,30.40,30.22,4,0,4,0.00
2013-10-31,61.7,44.2,29.8,53.7,26.1,13.0,75,49,38,30.28,29.81,8,0,8,0.08
2013-11-1,69.4,63.5,55.0,50.8,36.2,29.0,64,37,27,29.81,29.46,15,4,15,0.04
2013-11-2,71.6,54.0,41.9,34.3,26.1,21.4,49,35,24,29.75,29.60,10,1,10,0.00
2013-11-3,48.9,39.9,28.0,26.7,12.4,1.0,43,32,27,30.46,29.75,10,2,10,0.00
2013-11-4,46.2,30.8,22.6,14.0,3.2,-2.4,37,30,27,30.73,30.46,6,1,6,0.00
2013-11-5,56.5,35.2,22.5,22.2,9.0,0.1,42,34,26,30.75,30.55,6,1,6,0.00
2013-11-6,65.7,48.3,35.1,28.6,20.3,13.1,42,33,26,30.55,30.05,10,2,10,0.00
2013-11-7,63.3,53.0,38.3,37.2,28.9,13.6,48,40,30,30.05,29.69,10,2,10,0.12
2013-11-8,49.1,37.8,29.3,16.7,9.9,5.0,40,31,26,30.11,29.84,13,3,13,0.00
2013-11-9,44.4,37.8,28.6,13.1,8.3,1.5,33,29,28,30.22,30.05,13,2,13,0.00
2013-11-10,56.3,43.5,37.6,26.6,17.4,8.8,49,36,27,30.05,29.75,9,2,9,0.04
2013-11-11,57.7,44.1,37.6,23.8,12.9,8.1,31,28,26,30.11,29.87,17,4,17,0.00
2013-11-12,47.3,33.8,23.4,20.2,6.1,-2.2,47,31,27,30.19,29.90,17,4,17,0.04
2013-11-13,40.6,26.9,20.8,9.4,0.3,-4.4,32,31,28,30.31,30.17,13,3,13,0.00
2013-11-14,56.8,36.5,25.7,22.9,7.2,-0.8,33,29,26,30.17,30.05,10,2,10,0.00
2013-11-15,63.7,38.7,24.6,27.8,9.9,0.2,39,30,26,30.22,30.11,6,0,6,0.00
2013-11-16,68.2,41.7,30.2,31.0,11.9,3.7,38,29,25,30.34,30.19,6,0,6,0.00
2013-11-17,55.2,42.4,28.4,48.0,22.1,7.0,77,45,36,30.34,29.87,4,0,4,0.00
2013-11-18,69.3,58.0,46.6,65.2,35.5,14.9,97,49,25,29.87,29.55,13,3,13,0.20
2013-11-19,47.7,38.3,30.0,15.3,8.5,2.3,33,29,27,30.28,29.66,17,7,17,0.00
2013-11-20,48.2,31.0,21.6,15.6,3.2,-3.8,34,30,27,30.64,30.28,15,4,15,0.00
2013-11-21,56.3,32.0,17.4,20.2,4.0,-7.0,36,30,25,30.67,30.37,8,1,8,0.00
2013-11-22,44.4,40.1,34.3,26.6,18.8,5.9,51,43,29,30.37,29.81,3,0,0,0.16
2013-11-23,47.8,37.5,27.3,34.1,11.4,0.6,60,34,27,29.93,29.78,17,5,17,0.00
2013-11-24,30.7,22.5,18.3,3.8,-2.8,-6.4,44,32,30,30.19,29.78,25,8,25,0.00
2013-11-25,39.9,23.4,14.2,8.8,-2.4,-9.1,35,32,28,30.37,30.19,13,4,13,0.00
2013-11-26,36.3,32.3,27.9,16.5,5.8,1.0,48,32,29,30.34,30.11,8,1,8,0.12
2013-11-27,67.1,51.0,34.3,66.0,38.3,10.7,99,64,34,30.08,29.22,17,4,17,1.30
2013-11-28,42.4,29.6,19.4,11.2,3.0,-5.6,34,32,28,30.43,29.43,20,5,20,0.00
2013-11-29,40.5,22.3,14.4,9.1,-3.0,-9.1,43,32,28,30.75,30.43,10,2,10,0.00
2013-11-30,48.6,22.0,9.1,15.0,-3.5,-13.6,38,32,26,30.82,30.46,6,0,6,0.00
2013-12-1,40.5,34.5,28.8,25.5,13.3,1.0,55,42,30,30.43,30.05,4,0,4,0.12
2013-12-2,43.5,40.6,38.8,29.3,25.2,22.6,62,54,49,30.05,29.93,4,0,4,0.00
2013-12-3,58.1,39.1,30.2,24.7,18.5,10.7,55,44,27,29.96,29.87,7,1,7,0.00
2013-12-4,41.7,32.4,27.0,19.8,10.4,5.9,59,41,28,30.22,29.96,9,1,9,0.00
2013-12-5,43.3,37.1,26.6,27.8,18.9,9.7,54,48,40,30.22,29.93,4,0,4,0.00
2013-12-6,53.1,44.8,33.8,49.4,25.2,11.7,88,47,29,30.17,29.87,8,1,8,0.08
2013-12-7,42.1,32.1,21.6,20.2,10.8,-1.5,51,41,29,30.46,30.11,10,2,10,0.08
2013-12-8,29.7,25.0,18.3,7.6,2.3,-0.2,52,38,30,30.61,30.46,6,0,6,0.00
2013-12-9,38.1,32.3,24.3,21.4,13.9,-1.3,54,47,31,30.52,29.90,6,1,6,0.04
2013-12-10,38.3,32.1,22.3,24.4,13.7,-3.2,60,47,31,29.99,29.81,8,0,8,0.00
2013-12-11,36.3,23.6,14.9,6.7,-0.4,-4.5,48,35,30,30.19,29.99,10,2,10,0.00
2013-12-12,33.8,17.0,9.7,5.0,-5.4,-13.1,45,36,30,30.28,30.05,13,2,13,0.00
2013-12-13,31.3,17.8,9.0,2.4,-6.6,-13.8,34,33,30,30.43,29.99,15,3,15,0.00
2013-12-14,21.7,11.6,6.3,-3.1,-11.0,-16.2,44,35,32,30.64,30.22,6,2,6,0.00
2013-12-15,27.7,20.3,14.7,8.5,2.3,-3.3,53,45,39,30.22,29.46,12,2,12,0.00
2013-12-16,36.0,19.7,6.3,6.2,-3.5,-16.2,49,36,30,30.22,29.72,14,3,14,0.00
2013-12-17,17.4,8.7,-5.8,-0.3,-12.7,-27.0,45,37,33,30.31,29.99,6,1,6,0.00
2013-12-18,43.9,23.2,12.9,12.8,0.2,-4.5,45,37,28,30.08,29.90,13,3,13,0.00
2013-12-19,49.1,30.2,23.9,15.6,3.8,-0.4,37,32,26,30.11,29.96,10,2,10,0.00
2013-12-20,54.1,36.0,26.8,21.2,9.4,3.4,38,33,26,30.14,29.90,5,0,5,0.16
2013-12-21,57.4,42.8,33.1,23.5,17.0,8.9,45,35,27,29.96,29.87,6,0,6,0.28
2013-12-22,47.7,38.9,36.5,42.7,23.9,19.4,84,55,42,30.05,29.84,6,1,6,0.08
2013-12-23,41.2,37.6,36.3,30.3,23.8,20.9,69,57,51,30.11,29.99,4,0,4,0.43
2013-12-24,43.9,31.7,22.5,28.7,8.5,-3.0,63,38,28,30.19,30.08,10,2,10,0.00
2013-12-25,30.0,16.0,9.5,2.3,-7.9,-13.3,34,33,30,30.55,30.19,15,3,15,0.00
2013-12-26,29.7,20.2,11.8,10.2,-1.2,-11.2,52,39,31,30.52,30.11,4,0,4,0.00
2013-12-27,33.3,20.7,8.6,8.9,-0.9,-7.5,51,39,30,30.25,30.19,10,1,10,0.00
2013-12-28,52.2,30.0,16.5,18.3,6.4,-0.7,50,37,26,30.22,29.99,12,1,12,0.08
2013-12-29,40.3,33.9,26.1,29.1,14.5,7.4,64,45,31,30.05,29.49,8,1,8,0.91
2013-12-30,45.9,32.3,12.7,36.2,11.3,-10.6,85,44,27,30.19,29.51,17,4,17,0.00
2013-12-31,26.2,13.8,6.6,-0.9,-9.8,-15.9,34,34,32,30.19,30.05,8,1,8,0.00
2014-1-1,30.2,16.8,9.3,1.8,-7.3,-13.4,34,33,30,30.40,30.17,13,2,13,0.00
2014-1-2,16.2,8.0,-1.3,-7.5,-13.4,-21.3,37,36,33,30.37,29.90,10,3,10,0.00